When you browse on this site, cookies collect data to enhance your experience and personalize the content and advertising you see.
Visit our Privacy Policy to learn more. By continuing to use the site, you agree to this use of cookies and data.
  • In Hungary
  • List of Countries
  • For 7 days
  • Water Temperature
  • Satellite Maps
  • Weather Map
  • News
  • Weather Widgets
  • user-avatar
    Login

    Hourly Weather Borzhomi

    Today, 17 January, Thursday

    Time Temperature Precipitation Wind Pressure Humidity
    00:00 0°C° 0 mm 1 mps 657 mmHg 78%
    01:00 0°C° 0.3 mm 1 mps 657 mmHg 82%
    02:00 0°C° 0.3 mm 1 mps 657 mmHg 86%
    03:00 -2°C° 0 mm 3 mps 657 mmHg 98%
    04:00 -4°C° 0.7 mm 3 mps 658 mmHg 97%
    05:00 -4°C° 0.7 mm 3 mps 658 mmHg 97%
    06:00 -5°C° 0.7 mm 3 mps 658 mmHg 96%
    07:00 -5°C° 0.2 mm 3 mps 658 mmHg 95%
    08:00 -4°C° 0.2 mm 2 mps 659 mmHg 94%
    09:00 -4°C° 0 mm 2 mps 658 mmHg 92%
    10:00 -4°C° 0.2 mm 2 mps 659 mmHg 90%
    11:00 -5°C° 0.2 mm 3 mps 659 mmHg 88%
    12:00 -5°C° 0.2 mm 3 mps 659 mmHg 86%
    13:00 -5°C° 0.1 mm 3 mps 659 mmHg 85%
    14:00 -5°C° 0.1 mm 3 mps 660 mmHg 85%
    15:00 -5°C° 0.1 mm 3 mps 660 mmHg 85%
    16:00 -5°C° 0.1 mm 3 mps 661 mmHg 87%
    17:00 -5°C° 0.1 mm 2 mps 662 mmHg 90%
    18:00 -5°C° 0.1 mm 2 mps 662 mmHg 93%
    19:00 -5°C° 0.1 mm 2 mps 663 mmHg 93%
    20:00 -5°C° 0.1 mm 2 mps 663 mmHg 93%
    21:00 -6°C° 0.1 mm 2 mps 664 mmHg 94%
    22:00 -6°C° 0 mm 2 mps 664 mmHg 94%
    23:00 -4°C° 0 mm 1 mps 664 mmHg 94%

    Tomorrow, 18 January, Friday

    Time Temperature Precipitation Wind Pressure Humidity
    00:00 -4°C° 0 mm 1 mps 665 mmHg 94%
    01:00 -4°C° 0 mm 1 mps 665 mmHg 94%
    02:00 -4°C° 0 mm 1 mps 665 mmHg 94%
    03:00 -4°C° 0 mm 1 mps 666 mmHg 94%
    04:00 -4°C° 0 mm 1 mps 666 mmHg 94%
    05:00 -4°C° 0 mm 1 mps 666 mmHg 93%
    06:00 -4°C° 0 mm 1 mps 666 mmHg 93%
    07:00 -4°C° 0 mm 1 mps 667 mmHg 90%
    08:00 -3°C° 0 mm 1 mps 667 mmHg 88%
    09:00 -3°C° 0 mm 1 mps 667 mmHg 85%
    10:00 -2°C° 0 mm 1 mps 667 mmHg 82%
    11:00 -1°C° 0 mm 1 mps 667 mmHg 79%
    12:00 +1°C° 0 mm 1 mps 667 mmHg 76%
    13:00 +1°C° 0 mm 1 mps 667 mmHg 76%
    14:00 +1°C° 0 mm 1 mps 667 mmHg 76%
    15:00 +1°C° 0 mm 1 mps 667 mmHg 75%
    16:00 -1°C° 0 mm 1 mps 667 mmHg 80%
    17:00 -2°C° 0 mm 1 mps 667 mmHg 84%
    18:00 -4°C° 0 mm 1 mps 667 mmHg 89%
    19:00 -4°C° 0 mm 1 mps 667 mmHg 85%
    20:00 -4°C° 0 mm 1 mps 667 mmHg 82%
    21:00 -4°C° 0 mm 1 mps 667 mmHg 79%
    22:00 -6°C° 0 mm 2 mps 667 mmHg 77%
    23:00 -7°C° 0 mm 2 mps 667 mmHg 74%

    Day after tomorrow, 19 January, Saturday

    Time Temperature Precipitation Wind Pressure Humidity
    00:00 -7°C° 0 mm 2 mps 667 mmHg 71%
    01:00 -7°C° 0 mm 2 mps 667 mmHg 70%
    02:00 -7°C° 0 mm 2 mps 667 mmHg 68%
    03:00 -7°C° 0 mm 2 mps 667 mmHg 66%
    04:00 -7°C° 0 mm 2 mps 667 mmHg 65%
    05:00 -7°C° 0 mm 2 mps 666 mmHg 64%
    06:00 -7°C° 0 mm 2 mps 666 mmHg 62%
    07:00 -6°C° 0 mm 2 mps 666 mmHg 61%
    08:00 -5°C° 0 mm 2 mps 667 mmHg 59%
    09:00 -4°C° 0 mm 2 mps 667 mmHg 57%
    10:00 -2°C° 0 mm 2 mps 667 mmHg 54%
    11:00 +2°C° 0 mm 1 mps 667 mmHg 52%
    12:00 +4°C° 0 mm 1 mps 667 mmHg 49%
    13:00 +4°C° 0 mm 1 mps 667 mmHg 51%
    14:00 +4°C° 0 mm 1 mps 666 mmHg 53%
    15:00 +4°C° 0 mm 1 mps 666 mmHg 55%
    16:00 +2°C° 0 mm 1 mps 666 mmHg 60%
    17:00 0°C° 0 mm 1 mps 666 mmHg 65%
    18:00 -2°C° 0 mm 1 mps 666 mmHg 70%
    19:00 -3°C° 0 mm 1 mps 666 mmHg 69%
    20:00 -5°C° 0 mm 2 mps 666 mmHg 68%
    21:00 -6°C° 0 mm 2 mps 666 mmHg 67%
    22:00 -6°C° 0 mm 2 mps 666 mmHg 66%
    23:00 -6°C° 0 mm 2 mps 667 mmHg 64%

    20 January, Sunday

    Time Temperature Precipitation Wind Pressure Humidity
    00:00 -6°C° 0 mm 2 mps 667 mmHg 62%
    01:00 -6°C° 0 mm 2 mps 667 mmHg 61%
    02:00 -6°C° 0 mm 2 mps 667 mmHg 60%
    03:00 -5°C° 0 mm 2 mps 667 mmHg 59%
    04:00 -5°C° 0 mm 2 mps 667 mmHg 58%
    05:00 -5°C° 0 mm 2 mps 667 mmHg 57%
    06:00 -3°C° 0 mm 1 mps 667 mmHg 56%
    07:00 -2°C° 0 mm 1 mps 667 mmHg 56%
    08:00 -2°C° 0 mm 1 mps 667 mmHg 55%
    09:00 -1°C° 0 mm 1 mps 668 mmHg 55%
    10:00 0°C° 0 mm 1 mps 668 mmHg 51%
    11:00 +2°C° 0 mm 1 mps 668 mmHg 48%
    12:00 +3°C° 0 mm 1 mps 668 mmHg 45%
    13:00 +3°C° 0 mm 1 mps 667 mmHg 47%
    14:00 +3°C° 0 mm 1 mps 667 mmHg 49%
    15:00 +3°C° 0 mm 1 mps 667 mmHg 51%
    16:00 +2°C° 0 mm 1 mps 667 mmHg 56%
    17:00 0°C° 0 mm 1 mps 667 mmHg 61%
    18:00 -2°C° 0 mm 1 mps 667 mmHg 66%
    19:00 -2°C° 0 mm 1 mps 667 mmHg 66%
    20:00 -2°C° 0 mm 1 mps 667 mmHg 67%
    21:00 -2°C° 0 mm 1 mps 667 mmHg 67%
    22:00 -3°C° 0 mm 1 mps 667 mmHg 67%
    23:00 -3°C° 0 mm 1 mps 667 mmHg 66%

    21 January, Monday

    Time Temperature Precipitation Wind Pressure Humidity
    00:00 -5°C° 0 mm 2 mps 667 mmHg 66%
    01:00 -5°C° 0 mm 2 mps 667 mmHg 65%
    02:00 -5°C° 0 mm 2 mps 667 mmHg 64%
    03:00 -6°C° 0 mm 2 mps 667 mmHg 63%
    04:00 -6°C° 0 mm 2 mps 667 mmHg 62%
    05:00 -6°C° 0 mm 2 mps 667 mmHg 62%
    06:00 -6°C° 0 mm 2 mps 667 mmHg 61%
    07:00 -5°C° 0 mm 2 mps 667 mmHg 59%
    08:00 -5°C° 0 mm 2 mps 667 mmHg 58%
    09:00 -4°C° 0 mm 2 mps 667 mmHg 56%
    10:00 -2°C° 0 mm 2 mps 667 mmHg 53%
    11:00 -1°C° 0 mm 2 mps 667 mmHg 51%
    12:00 +2°C° 0 mm 2 mps 667 mmHg 48%
    13:00 +3°C° 0 mm 1 mps 667 mmHg 49%
    14:00 +3°C° 0 mm 1 mps 666 mmHg 50%
    15:00 +4°C° 0 mm 1 mps 666 mmHg 52%
    16:00 +2°C° 0 mm 1 mps 666 mmHg 56%
    17:00 0°C° 0 mm 1 mps 666 mmHg 61%
    18:00 -4°C° 0 mm 2 mps 666 mmHg 65%
    19:00 -4°C° 0 mm 2 mps 666 mmHg 64%
    20:00 -5°C° 0 mm 2 mps 666 mmHg 63%
    21:00 -5°C° 0 mm 2 mps 666 mmHg 62%
    22:00 -5°C° 0 mm 2 mps 666 mmHg 61%
    23:00 -6°C° 0 mm 2 mps 666 mmHg 60%

    22 January, Tuesday

    Time Temperature Precipitation Wind Pressure Humidity
    00:00 -6°C° 0 mm 2 mps 666 mmHg 60%
    01:00 -6°C° 0 mm 2 mps 666 mmHg 60%
    02:00 -6°C° 0 mm 2 mps 666 mmHg 60%
    03:00 -6°C° 0 mm 2 mps 666 mmHg 61%
    04:00 -6°C° 0 mm 2 mps 666 mmHg 63%
    05:00 -6°C° 0 mm 2 mps 666 mmHg 64%
    06:00 -5°C° 0 mm 2 mps 666 mmHg 66%
    07:00 -3°C° 0 mm 1 mps 666 mmHg 67%
    08:00 -2°C° 0 mm 1 mps 667 mmHg 68%
    09:00 -1°C° 0 mm 1 mps 667 mmHg 69%
    10:00 0°C° 0 mm 1 mps 667 mmHg 69%
    11:00 +1°C° 0 mm 1 mps 667 mmHg 69%
    12:00 +3°C° 0 mm 1 mps 667 mmHg 68%
    13:00 +2°C° 0.1 mm 1 mps 666 mmHg 73%
    14:00 +2°C° 0.1 mm 1 mps 666 mmHg 77%
    15:00 +2°C° 0.1 mm 1 mps 666 mmHg 82%
    16:00 +1°C° 0.1 mm 1 mps 666 mmHg 86%
    17:00 0°C° 0.1 mm 1 mps 666 mmHg 89%
    18:00 -2°C° 0.1 mm 0 mps 667 mmHg 93%
    19:00 -1°C° 0 mm 1 mps 667 mmHg 91%
    20:00 -2°C° 0 mm 1 mps 667 mmHg 89%
    21:00 -2°C° 0 mm 1 mps 667 mmHg 88%
    22:00 -2°C° 0 mm 1 mps 667 mmHg 85%
    23:00 -2°C° 0 mm 1 mps 667 mmHg 81%
    Show more